Regional Weather Roundup
Issued by NWS Upton, NY

Current Version | Previous Version | Text Only | Print | Product List | Glossary On
Versions: 1 2 3 4 5 6 7 8 9 10 11 12 13 14 15 16 17 18 19 20 21 22 23 24 25 26 27 28 29 30 31 32 33 34 35 36 37 38 39 40 41 42 43 44 45 46 47 48 49 50
908
ASUS41 KOKX 282205
RWROKX

REGIONAL WEATHER ROUNDUP
NATIONAL WEATHER SERVICE NEW YORK NY
600 PM EDT SAT MAY 28 2016

NOTE: "FAIR" INDICATES FEW OR NO CLOUDS BELOW 12,000 FEET WITH NO
SIGNIFICANT WEATHER AND/OR OBSTRUCTIONS TO VISIBILITY.

NYZ071-072-176-178-NJZ106-104-282300-
NEW YORK CITY METRO AREA


CITY           SKY/WX    TMP DP  RH WIND       PRES   REMARKS
CENTRAL PARK   PTSUNNY   86  65  49 VRB3      30.10R
LAGUARDIA APRT MOSUNNY   86  64  48 S10       30.06S
KENNEDY INTL   MOSUNNY   74  60  61 S21G30    30.09S
NEWARK/LIBERTY MOSUNNY   93  64  38 W16       30.06R HX  94
BRNX BOT. GARD   N/A     82  64  54 N1        30.09F
TETERBORO      CLOUDY    85  65  51 NE7       30.06R
$$

NYZ177-179-078>081-282300-
LONG ISLAND NEW YORK

CITY           SKY/WX    TMP DP  RH WIND       PRES   REMARKS
FARMINGDALE    SUNNY     75  61  61 SW20G25   30.11S
ISLIP          MOSUNNY   75  61  61 SW13G25   30.11S
SHIRLEY        SUNNY     74  61  63 SW15G22   30.12F
RIVERHEAD        N/A     79  64  61 SW3       30.09F
WESTHAMPTON    SUNNY     71  58  63 SW14G23   30.13F
EAST HAMPTON   FAIR      73  60  62 SW10G20   30.11S
MONTAUK POINT    N/A     71  59  65 SW12G24   30.12S
$$

NYZ052-065-067-282300-
HUDSON VALLEY

CITY           SKY/WX    TMP DP  RH WIND       PRES   REMARKS
WHITE PLAINS   CLOUDY    80  64  58 SW6       30.10R THUNDER
NEWBURGH       MOSUNNY   86  68  54 W7        30.08R
MONTGOMERY     MOSUNNY   84  68  58 SW9       30.07R
POUGHKEEPSIE   SUNNY     91  65  41 SW12G21   30.04R HX  93
ALBANY         PTSUNNY   92  59  33 W10       30.04S HX  91
$$

NJZ001-105-106-008-010-013-015-019>022-104-282300-
NEW JERSEY

CITY           SKY/WX    TMP DP  RH WIND       PRES   REMARKS
NEWARK/LIBERTY MOSUNNY   93  64  38 W16       30.06R HX  94
TETERBORO      CLOUDY    85  65  51 NE7       30.06R
CALDWELL       LGT RAIN  80  70  71 NW15G22   30.09R
MORRISTOWN     PTSUNNY   90  66  45 W7        30.08R HX  92
SOMERVILLE     SUNNY     88  66  48 VRB5      30.06R HX  90
SUSSEX         MOSUNNY   78  71  79 S5        30.10S
ANDOVER          N/A     75  71  87 CALM      30.12R
TRENTON        SUNNY     88  64  44 SW9       30.08S
MILLVILLE      SUNNY     80  59  48 S9        30.12F
ATLANTIC CITY  SUNNY     80  54  40 S14       30.13F
WRIGHTSTOWN    SUNNY     88  67  49 W15       30.06F HX  90
TOMS RIVER     SUNNY     84  61  45 S13       30.10S
BELMAR         SUNNY     83  68  60 SE8       30.10S
$$

PAZ047>061-062-071-282300-
EASTERN PENNSYLVANIA

CITY           SKY/WX    TMP DP  RH WIND       PRES   REMARKS
PHILADELPHIA   MOSUNNY   88  65  46 S12       30.10S HX  90
ALLENTOWN      PTSUNNY   89  67  47 SW9       30.08S HX  92
SCRANTON       CLOUDY    84  65  52 S8        30.10S
$$

CTZ002-004>006-009-010-012-RIZ004-006-007-MAZ004-011-015-282300-
SOUTHERN NEW ENGLAND
 IN CT

CITY           SKY/WX    TMP DP  RH WIND       PRES   REMARKS
BRADLEY INTL   PTSUNNY   89  68  49 S12       30.03F HX  93
HARTFORD       MOSUNNY   90  67  46 S12       30.04S HX  93
DANBURY        CLOUDY    84  67  56 S8G17     30.09S
WTRBRY/OXFORD  MOSUNNY   84  66  54 S15G21    30.12S
BRIDGEPORT     SUNNY     79  64  60 SW12      30.08S
MERIDEN        SUNNY     85  66  53 S14       30.06F
NEW HAVEN      SUNNY     77  65  66 VRB6      30.09S
CHESTER        FAIR      81  66  61 S10       30.10S
GROTON         SUNNY     72  65  78 S5        30.09F
WILLIMANTIC    MOSUNNY   86  67  52 S10       30.07S

 IN RI

CITY           SKY/WX    TMP DP  RH WIND       PRES   REMARKS
PROVIDENCE     CLOUDY    84  64  50 SW16      30.07R
BLOCK ISLAND   SUNNY     65  58  78 SW20G26   30.11F
WESTERLY       MOSUNNY   74  60  61 W6        30.10F

 IN MA

CITY           SKY/WX    TMP DP  RH WIND       PRES   REMARKS
BOSTON         CLOUDY    78  64  61 NE5       30.02S
WORCESTER      NOT AVBL
WESTFIELD      MOSUNNY   88  69  53 S7        30.04S HX  92
PROVINCETOWN   SUNNY     71  62  73 S16G23    30.07S
NANTUCKET      MOSUNNY   64  57  78 SW14      30.12S
$$

ANZ330-335-338-340-345-350-353-355-282300-
COASTAL MARINE OBSERVATIONS


STATION/POSITION TIME  SKY/WX   TEMP    WIND        PRES    VSBY  WAVE
                                AIR SEA DIR/SP/G                  HT/PER
                 (UTC)          (F)     (DEG/KT/KT) (MB)    (MI)  (FT/S)
NY HARB ENTRANCE 2050            64 59  200/ 19/ 21 1018.4          3/ 5
20S FIRE ISLAND  2050            64 60  210/ 19/ 21 1019.3          4/ 5
GREAT SOUTH BAY  2130            67 70  230/ 12/ 16   N/A
23 SSW MONTAUK P 2150            62 57  230/ 16/ 19 1019.2          3/ 5
15 E BARNEGAT LI 2122               60                N/A           3/ 4
HUDSON CANYON    2050            62 59              1021.4          3/ 8
KINGS POINT      2100            76 63              1018.2
EXECUTION ROCKS  NOT AVBL
CENTRAL LI SOUND 2115            70     200/ 10/ 12   N/A           1/ 2
EASTERN LI SOUND 2100            66 56  220/  6/  8   N/A
ROBBINS REEF     2100            80     160/ 16/ 17 1017.3
$$


>>>>>>>>>>>>>>>>>>>>>>>>>>>> KEY <<<<<<<<<<<<<<<<<<<<<<<<<<<
>                                                          <
>     SKY/WX - SKY CONDITION/PRESENT WEATHER               <
>     TMP    - TEMPERATURE IN FAHRENHEIT                   <
>     DP     - DEWPOINT IN FAHRENHEIT                      <
>     RH     - RELATIVE HUMIDITY IN PERCENT                <
>     WIND   - DIRECTION AND SPEED IN MPH                  <
>     PRES   - MEAN SEA LEVEL PRESSURE IN INCHES OF HG     <
>     WCI    - WIND CHILL INDEX                            <
>     VSB    - VISIBILITY IN MILES                         <
>     HX     - HEAT INDEX                                  <
>     TC     - TEMPERATURE IN CELSIUS                      <
>     VRB    - VARIABLE WIND DIRECTION                     <
>                                                          <
>>>>>>>>>>>>>>>>>>>>>>>>>>>> KEY <<<<<<<<<<<<<<<<<<<<<<<<<<<






USA.gov is the U.S. government's official web portal to all federal, state and local government web resources and services.